Regional Weather Roundup
Issued by NWS

Home | Current Version | Previous Version | Text Only | Print | Product List | Glossary On
Versions: 1 2 3 4 5 6 7 8 9 10 11 12 13 14 15 16 17 18 19 20 21 22 23 24 25 26 27 28 29 30 31 32 33 34 35 36 37 38 39 40 41 42 43 44 45 46 47 48 49 50
000
ASCA44 KEWX 240420
RWRMX

LATIN AMERICA AND CARIBBEAN REGIONAL WEATHER ROUNDUP
NATIONAL WEATHER SERVICE AUSTIN/SAN ANTONIO TX
1100 PM CDT FRI JUN 23 2017

NOTE: "FAIR" INDICATED FEW OR NO CLOUDS BELOW 12,000 FEET WITH NO
SIGNIFICANT WEATHER AND/OR OBSTRUCTIONS TO VISIBILITY.

BAJA CALIFORNIA

CITY           SKY/WX    TMP DP  RH WIND       PRES   REMARKS
LA PAZ         CLEAR     72  61  68 S16       29.84R
MEXICALI       PTCLDY    88  63  42 SE12      29.68R
S.J. DEL CABO  CLEAR     86  55  35 CALM      29.78R
TIJUANA        PTCLDY    64  59  82 CALM      29.94S

NORTHWESTERN MEXICO

CITY           SKY/WX    TMP DP  RH WIND       PRES   REMARKS
CULIACAN       MOCLDY    82  72  69 S7        29.76R
HERMOSILLO     MOCLDY    91  68  46 SW9       29.78R HX  95
CD. JUAREZ       N/A    N/A N/A N/A MISG        N/A
LOS MOCHIS     MOCLDY    82  70  65 W6        29.76R

NORTHEASTERN MEXICO

CITY           SKY/WX    TMP DP  RH WIND       PRES   REMARKS
CHIHUAHUA      MOCLDY    91  46  21 W8        29.99R
MONCLOVA         N/A    N/A N/A N/A MISG        N/A
MONTERREY      CLEAR     90  63  40 E14       29.81R HX  90
REYNOSA          N/A    N/A N/A N/A MISG        N/A
SALTILLO       CLEAR     81  54  39 E12       30.06R
TORREON        CLEAR     91  52  25 E10       29.88R
CD. VICTORIA     N/A    N/A N/A N/A MISG        N/A

WESTERN MEXICO

CITY           SKY/WX    TMP DP  RH WIND       PRES   REMARKS
AGUASCALIENTES PTCLDY    64  55  72 NE2       30.21R
COLIMA           N/A    N/A N/A N/A MISG        N/A
DEL BAJIO      CLOUDY    70  55  60 N7        30.19R
GUADALAJARA    CLOUDY    68  59  73 NE7       30.07R
MAZATLAN       PTCLDY    81  70  69 W5        29.80R
P. VALLARTA    CLOUDY    82  75  78 SW5       29.81R
URUAPAN          N/A    N/A N/A N/A MISG        N/A
ZACATECAS      MOCLDY    66  48  52 S12       30.23S

CENTRAL MEXICO

CITY           SKY/WX    TMP DP  RH WIND       PRES   REMARKS
CUERNAVACA       N/A    N/A N/A N/A MISG        N/A
MEXICO CITY    PTCLDY    68  48  49 NE14      30.26R
MORELIA        CLOUDY    68  55  64 SW3       30.14R
POZA RICA        N/A    N/A N/A N/A MISG        N/A
QUERETARO      PTCLDY    72  54  53 E8        30.21R
S. LUIS POTOSI MOCLDY    61  57  88 NE6       30.18R
TAMPICO        PTCLDY    84  77  79 E12       29.82R HX  94
TOLUCA         PTCLDY    61  48  63 E3        30.30R

SOUTHERN MEXICO

CITY           SKY/WX    TMP DP  RH WIND       PRES   REMARKS
ACAPULCO       PTCLDY    84  77  79 SW5       29.82R HX  94
B. DE HUATULCO   N/A    N/A N/A N/A MISG        N/A
P. ESCONDIDO     N/A    N/A N/A N/A MISG        N/A
VERACRUZ       MOCLDY    84  79  84 CALM      29.83R HX  96

YUCATAN PENINSULA

CITY           SKY/WX    TMP DP  RH WIND       PRES   REMARKS
CAMPECHE         N/A    N/A N/A N/A MISG        N/A
CANCUN         PTCLDY    82  79  89 E7        29.96R HX  93
CHETUMAL       MOCLDY    82  77  83 E6        29.90R HX  91
CD. DEL CARMEN TSTM     N/A N/A N/A SE22G33   29.89R
COZUMEL        PTCLDY    81  77  89 E6        29.92
MERIDA         CLEAR     82  73  74 E12       29.89S
MINATITLAN       N/A    N/A N/A N/A MISG        N/A
TAPACHULA      MOCLDY    77  75  94 CALM      29.89R
TUX. GUTIERREZ RAIN      68  68 100 SW5       29.97R
VILLAHERMOSA   MOCLDY    79  72  78 CALM      29.85R

CENTRAL AMERICA

CITY           SKY/WX    TMP DP  RH WIND       PRES   REMARKS
MANAGUA        PTCLDY    77  75  94 S5        29.86R

CARIBBEAN

CITY           SKY/WX    TMP DP  RH WIND       PRES   REMARKS
ARUBA          PTCLDY    81  73  78 E17       29.89S
CURACAO        PTCLDY    81  72  74 E12       29.92S
KINGSTON       PTCLDY    82  73  74 E9        29.94S
NASSAU         MOCLDY    84  77  79 E5        30.07F HX  94
SAN JUAN       PTCLDY    81  73  78 E6        30.02F
SANTO DOMINGO  PTCLDY    75  72  88 N5        29.97F
ST. CROIX      MOCLDY    79  73  83 NE6       30.02
ST. MAARTEN    PTCLDY    81  75  83 E8        30.00F
ST. THOMAS     PTCLDY    82  73  74 E9        30.01

$$





USA.gov is the U.S. government's official web portal to all federal, state and local government web resources and services.